STARLINK-32655 (62202 NORAD) Tracking and Keplerian Element Data

This shows tracking and keplerian element data for the satellite.

Feedback or suggestion? Click here.




ElementValue
Catalog62202
NameSTARLINK-32655
Epoch Orbit946
Epoch Day34.2538193
Epoch Year2025
RAAN7.3107
Inclination43.002
Eccentricity6.04E-05
Argument of Perigee301.876
Mean Anonmoly58.2034
Mean Motion15.32094136
Decay Rate1.171E-05
L11 62202U 24229L 25034.25381930 .00001171 00000+0 45696-4 0 9999
L22 62202 43.0020 7.3107 0000604 301.8760 58.2034 15.32094136 9461



Live tracking and technical data element details for STARLINK-32655 (NORAD 62202). STARLINK-32655 can be tracked NOW for your location showing map with azimuth and elevation plus other details from your city location.







IsCatalogInMostPopularTable: catalog: 62202, numindb: 16
Update: records affected: 1



GetName: 62202 STARLINK-32655

Hit Count: updated at: Mon, 19 May 2025 02:14:56 GMT